Location: Colonia Mina de C?rbuni
(46.1667°N, 22.7167°E)
Time: 20:17:38
(UTC+00:00)

Tiros 1 - Pass Details

Date: 19 April 2024
Orbit: 624 x 657 km, 48.4° (Epoch: 28 May)

Event Time Altitude Azimuth Distance (km) Brightness Sun altitude
Rises 22:28:06 0° 222° (SW) 2,924 - -32.2°
Reaches altitude 10° 22:30:32 10° 214° (SW) 2,013 - -32.2°
Maximum altitude 22:34:49 38° 147° (SSE) 968 - -32.2°
Drops below altitude 10° 22:39:05 10° 79° (E) 2,004 - -32.2°
Exits shadow 22:40:09 - 75° (ENE) 2,400 10.3 -32.2°
Sets 22:41:30 0° 72° (ENE) 2,910 10.8 -32.2°
